Regional Weather Roundup
Issued by NWS Little Rock, AR

Home | Current Version | Previous Version | Text Only | Print | Product List | Glossary On
Versions: 1 2 3 4 5 6 7 8 9 10 11 12 13 14 15 16 17 18 19 20 21 22 23 24 25 26 27 28 29 30 31 32 33 34 35 36 37 38 39 40 41 42 43 44 45 46 47 48 49 50
000
ASUS44 KLZK 250405
RWRLZK

WEATHER ROUNDUP FOR ARKANSAS
NATIONAL WEATHER SERVICE LITTLE ROCK AR
1000 PM CST SAT JAN 24 2015

NOTE: "FAIR" INDICATES FEW OR NO CLOUDS BELOW 12,000 FEET WITH NO
SIGNIFICANT WEATHER AND/OR OBSTRUCTIONS TO VISIBILITY.

ARZ001-003-010-029-250500-
NORTHWEST ARKANSAS

CITY           SKY/WX    TMP DP  RH WIND       PRES   REMARKS
FAYETTEVILLE   PTCLDY    40  32  73 S8        29.88F
FORT SMITH     CLEAR     42  32  67 W3        29.91S
HARRISON       MOCLDY    50  33  52 W14G24    29.85F
BENTONVILLE    MOCLDY    45  30  57 SW9       29.87F
ROGERS         MOCLDY    45  33  63 SW8       29.86F
SILOAM SPGS    PTCLDY    43  28  56 SW7       29.88F
HIGHFILL       MOCLDY    45  32  60 SW10      29.86F
$$

ARZ004-005-016-250500-
NORTH CENTRAL ARKANSAS

CITY           SKY/WX    TMP DP  RH WIND       PRES   REMARKS
BATESVILLE     CLEAR     48  30  49 CALM      29.87F
FLIPPIN        MOCLDY    45  27  49 W3        29.85F
MTN HOME       MOCLDY    45  29  53 S5        29.85F
$$

ARZ040-041-250500-
WEST CENTRAL ARKANSAS

CITY           SKY/WX    TMP DP  RH WIND       PRES   REMARKS
MENA           CLEAR     50  34  53 SW6       29.94S
MOUNT IDA      CLEAR     39  32  76 CALM      29.90F
$$

ARZ009-017-025-026-028-250500-
NORTHEAST ARKANSAS

CITY           SKY/WX    TMP DP  RH WIND       PRES   REMARKS
JONESBORO      CLEAR     41  33  73 SW7       29.88F
NEWPORT        CLEAR     37  32  82 SW12      29.89F
WALNUT RIDGE   PTCLDY    37  28  70 SW9       29.86F
BLYTHEVILLE    CLEAR     41  34  76 SW10      29.89F
$$

ARZ022-023-033-042-044-250500-
CENTRAL ARKANSAS

CITY           SKY/WX    TMP DP  RH WIND       PRES   REMARKS
LITTLE ROCK    CLEAR     46  32  58 CALM      29.93S
N LITTLE ROCK  CLEAR     47  34  61 SW6       29.93S
JACKSONVILLE   CLEAR     37  30  73 SW2       29.91F
SEARCY         CLEAR     37  29  72 SW3       29.92S
HOT SPRINGS    CLEAR     42  34  73 CALM      29.93F
RUSSELLVILLE   CLEAR     35  31  85 CALM      29.90F
CLINTON        FAIR      32  30  93 CALM      29.91F
$$

ARZ036-250500-
EAST ARKANSAS

CITY           SKY/WX    TMP DP  RH WIND       PRES   REMARKS
WEST MEMPHIS   CLEAR     39  34  82 S7        29.90F
$$

ARZ050-053-066-070-073-250500-
SOUTHWEST ARKANSAS

CITY           SKY/WX    TMP DP  RH WIND       PRES   REMARKS
ARKADELPHIA    FAIR      37  36  96 CALM      29.96F
CAMDEN         CLEAR     37  32  81 CALM      29.98F
TEXARKANA      CLEAR     44  36  73 SW8       29.98F
EL DORADO      CLEAR     37  33  85 SW5       30.00S
DE QUEEN       CLEAR     34  33  96 CALM      29.95F
$$

ARZ056-057-069-250500-
SOUTHEAST ARKANSAS

CITY           SKY/WX    TMP DP  RH WIND       PRES   REMARKS
PINE BLUFF     CLEAR     45  32  60 SW7       29.95S
STUTTGART      CLEAR     45  34  65 SW9       29.93S
MONTICELLO     CLEAR     47  33  58 SW9       29.96F

$$





USA.gov is the U.S. government's official web portal to all federal, state and local government web resources and services.